This is the latest recevied weather packets stored in our database for station/object BARLOW-WX. If no packets are shown the sender has not sent any weather packets the latest 10 day(s).
| Time | Temp. | Humidity | Pressure | Rain* | Wind** | Luminosity | Snow |
|---|---|---|---|---|---|---|---|
| 1787951782 | 25° C | 31% | 993 hPa | 0 mm | - | - | - |
| 1787950880 | 25° C | 31% | 993 hPa | 0 mm | - | - | - |
| 1787949981 | 25° C | 35% | 992.5 hPa | 0 mm | - | - | - |
| 1787949080 | 25° C | 36% | 992.5 hPa | 0 mm | - | - | - |
| 1787948181 | 25° C | 36% | 992.5 hPa | 0 mm | - | - | - |
| 1787947279 | 24.44° C | 41% | 992.7 hPa | 0 mm | - | - | - |
| 1787946379 | 24.44° C | 41% | 992.5 hPa | 0 mm | - | - | - |
| 1787945480 | 24.44° C | 41% | 992.5 hPa | 0 mm | - | - | - |
| 1787944581 | 25° C | 41% | 992.5 hPa | 0 mm | - | - | - |
| 1787943689 | 25° C | 41% | 992.5 hPa | 0 mm | - | - | - |
| 1787942782 | 25° C | 38% | 993.1 hPa | 0 mm | - | - | - |
| 1787941878 | 25° C | 38% | 993.2 hPa | 0 mm | - | - | - |
| 1787940980 | 24.44° C | 38% | 993.2 hPa | 0 mm | - | - | - |
| 1787940080 | 24.44° C | 38% | 993.2 hPa | 0 mm | - | - | - |
| 1787939178 | 24.44° C | 44% | 993.3 hPa | 0 mm | - | - | - |
| 1787938279 | 23.89° C | 40% | 992.9 hPa | 0 mm | - | - | - |
| 1787937378 | 24.44° C | 40% | 992.9 hPa | 0 mm | - | - | - |
| 1787936486 | 23.89° C | 40% | 992.9 hPa | 0 mm | - | - | - |
| 1787935578 | 23.89° C | 54% | 993.1 hPa | 0 mm | - | - | - |
| 1787934681 | 23.33° C | 53% | 993.4 hPa | 0 mm | - | - | - |
| 1787933778 | 23.33° C | 53% | 993.4 hPa | 0 mm | - | - | - |
| 1787932888 | 22.78° C | 53% | 993.4 hPa | 0 mm | - | - | - |
| 1787931980 | 22.22° C | 62% | 992.9 hPa | 0 mm | - | - | - |
| 1787931078 | 21.67° C | 58% | 993.7 hPa | 0 mm | - | - | - |
| 1787930178 | 21.11° C | 58% | 993.7 hPa | 0 mm | - | - | - |
* Rain latest hour (hover to see other rain measurements)
** Current wind speed in m/s (hover to see current wind gust speed)